Hourly Weather Homichi

Today, 11 April, Sunday

Time Temperature Precipitation Wind Pressure Humidity
00:00 +9°C° 0 mm 2 mps 751 mmHg 74%
01:00 +9°C° 0 mm 2 mps 751 mmHg 75%
02:00 +8°C° 0 mm 2 mps 751 mmHg 75%
03:00 +8°C° 0 mm 3 mps 751 mmHg 76%
04:00 +8°C° 0 mm 3 mps 751 mmHg 76%
05:00 +7°C° 0 mm 3 mps 751 mmHg 77%
06:00 +8°C° 0 mm 3 mps 752 mmHg 75%
07:00 +8°C° 0 mm 4 mps 752 mmHg 73%
08:00 +8°C° 0 mm 4 mps 753 mmHg 72%
09:00 +11°C° 0 mm 4 mps 753 mmHg 66%
10:00 +12°C° 0 mm 5 mps 753 mmHg 61%
11:00 +14°C° 0 mm 5 mps 753 mmHg 55%
12:00 +14°C° 0 mm 5 mps 753 mmHg 52%
13:00 +15°C° 0 mm 6 mps 753 mmHg 48%
14:00 +16°C° 0 mm 6 mps 753 mmHg 45%
15:00 +16°C° 0 mm 6 mps 753 mmHg 46%
16:00 +16°C° 0 mm 6 mps 753 mmHg 47%
17:00 +16°C° 0 mm 6 mps 753 mmHg 49%
18:00 +14°C° 0 mm 5 mps 753 mmHg 51%
19:00 +12°C° 0 mm 5 mps 753 mmHg 54%
20:00 +11°C° 0 mm 4 mps 754 mmHg 57%
21:00 +9°C° 0 mm 5 mps 754 mmHg 57%
22:00 +9°C° 0 mm 5 mps 754 mmHg 57%
23:00 +9°C° 0 mm 5 mps 754 mmHg 58%

Tomorrow, 12 April, Monday

Time Temperature Precipitation Wind Pressure Humidity
00:00 +8°C° 0 mm 5 mps 754 mmHg 59%
01:00 +8°C° 0 mm 5 mps 754 mmHg 60%
02:00 +7°C° 0 mm 5 mps 754 mmHg 61%
03:00 +7°C° 0 mm 5 mps 754 mmHg 61%
04:00 +6°C° 0 mm 5 mps 754 mmHg 61%
05:00 +6°C° 0 mm 5 mps 753 mmHg 61%
06:00 +7°C° 0 mm 5 mps 753 mmHg 60%
07:00 +7°C° 0 mm 6 mps 753 mmHg 59%
08:00 +8°C° 0 mm 6 mps 753 mmHg 58%
09:00 +9°C° 0 mm 6 mps 753 mmHg 54%
10:00 +10°C° 0 mm 7 mps 753 mmHg 49%
11:00 +11°C° 0 mm 7 mps 753 mmHg 44%
12:00 +12°C° 0 mm 7 mps 752 mmHg 44%
13:00 +13°C° 0 mm 6 mps 752 mmHg 44%
14:00 +14°C° 0 mm 6 mps 752 mmHg 44%
15:00 +14°C° 0 mm 5 mps 751 mmHg 47%
16:00 +13°C° 0 mm 4 mps 751 mmHg 50%
17:00 +13°C° 0 mm 4 mps 751 mmHg 53%
18:00 +12°C° 0 mm 4 mps 751 mmHg 56%
19:00 +12°C° 0 mm 3 mps 751 mmHg 59%
20:00 +11°C° 0 mm 3 mps 751 mmHg 61%
21:00 +11°C° 0 mm 3 mps 751 mmHg 63%
22:00 +11°C° 0 mm 3 mps 751 mmHg 65%
23:00 +10°C° 0 mm 3 mps 751 mmHg 66%

Day after tomorrow, 13 April, Tuesday

Time Temperature Precipitation Wind Pressure Humidity
00:00 +10°C° 0 mm 3 mps 751 mmHg 67%
01:00 +10°C° 0 mm 3 mps 751 mmHg 69%
02:00 +10°C° 0 mm 2 mps 750 mmHg 70%
03:00 +9°C° 0 mm 2 mps 751 mmHg 76%
04:00 +9°C° 0 mm 2 mps 751 mmHg 82%
05:00 +8°C° 0 mm 2 mps 751 mmHg 89%
06:00 +8°C° 0 mm 3 mps 751 mmHg 88%
07:00 +8°C° 0 mm 3 mps 751 mmHg 87%
08:00 +8°C° 0 mm 3 mps 752 mmHg 87%
09:00 +8°C° 0 mm 3 mps 752 mmHg 84%
10:00 +7°C° 0 mm 4 mps 752 mmHg 82%
11:00 +7°C° 0 mm 4 mps 752 mmHg 80%
12:00 +7°C° 0 mm 4 mps 752 mmHg 79%
13:00 +7°C° 0 mm 4 mps 752 mmHg 79%
14:00 +7°C° 0 mm 5 mps 752 mmHg 78%
15:00 +7°C° 0 mm 5 mps 752 mmHg 79%
16:00 +6°C° 0 mm 5 mps 752 mmHg 80%
17:00 +6°C° 0 mm 5 mps 752 mmHg 80%
18:00 +5°C° 0.2 mm 5 mps 752 mmHg 81%
19:00 +5°C° 0.2 mm 5 mps 752 mmHg 82%
20:00 +3°C° 0.2 mm 5 mps 752 mmHg 83%
21:00 +3°C° 0.1 mm 5 mps 752 mmHg 83%
22:00 +3°C° 0.1 mm 5 mps 752 mmHg 83%
23:00 +3°C° 0.1 mm 5 mps 752 mmHg 82%

14 April, Wednesday

Time Temperature Precipitation Wind Pressure Humidity
00:00 +3°C° 0 mm 6 mps 751 mmHg 83%
01:00 +3°C° 0 mm 6 mps 751 mmHg 83%
02:00 +2°C° 0 mm 6 mps 751 mmHg 83%
03:00 +2°C° 0 mm 6 mps 750 mmHg 85%
04:00 +2°C° 0 mm 6 mps 750 mmHg 87%
05:00 +2°C° 0 mm 7 mps 750 mmHg 89%
06:00 +2°C° 0.5 mm 7 mps 750 mmHg 89%
07:00 0°C° 0.5 mm 7 mps 750 mmHg 90%
08:00 0°C° 0.5 mm 7 mps 750 mmHg 91%
09:00 0°C° 1.1 mm 7 mps 750 mmHg 92%
10:00 0°C° 1.1 mm 7 mps 749 mmHg 93%
11:00 0°C° 1.1 mm 7 mps 749 mmHg 94%
12:00 -1°C° 0.8 mm 7 mps 749 mmHg 94%
13:00 -1°C° 0.8 mm 7 mps 749 mmHg 94%
14:00 -1°C° 0.8 mm 7 mps 749 mmHg 94%
15:00 -1°C° 0.4 mm 7 mps 749 mmHg 94%
16:00 -1°C° 0.4 mm 7 mps 749 mmHg 94%
17:00 -1°C° 0.4 mm 7 mps 749 mmHg 94%
18:00 -1°C° 0.1 mm 6 mps 749 mmHg 94%
19:00 -1°C° 0.1 mm 6 mps 749 mmHg 95%
20:00 +1°C° 0.1 mm 6 mps 749 mmHg 95%
21:00 +1°C° 0 mm 6 mps 749 mmHg 95%
22:00 +1°C° 0 mm 6 mps 749 mmHg 95%
23:00 +1°C° 0 mm 5 mps 749 mmHg 95%

15 April, Thursday

Time Temperature Precipitation Wind Pressure Humidity
00:00 +1°C° 0 mm 5 mps 749 mmHg 96%
01:00 +1°C° 0 mm 5 mps 749 mmHg 96%
02:00 +1°C° 0 mm 5 mps 749 mmHg 97%
03:00 +1°C° 0 mm 5 mps 749 mmHg 97%
04:00 +1°C° 0 mm 5 mps 749 mmHg 97%
05:00 +2°C° 0 mm 5 mps 749 mmHg 97%
06:00 +2°C° 0 mm 5 mps 749 mmHg 96%
07:00 +2°C° 0 mm 5 mps 750 mmHg 95%
08:00 +2°C° 0 mm 5 mps 750 mmHg 94%
09:00 +2°C° 0 mm 5 mps 750 mmHg 92%
10:00 +3°C° 0 mm 6 mps 750 mmHg 91%
11:00 +3°C° 0 mm 6 mps 750 mmHg 89%
12:00 +3°C° 0.1 mm 6 mps 750 mmHg 88%
13:00 +3°C° 0.1 mm 6 mps 750 mmHg 88%
14:00 +4°C° 0.1 mm 6 mps 751 mmHg 87%
15:00 +3°C° 0.1 mm 6 mps 751 mmHg 88%
16:00 +3°C° 0.1 mm 6 mps 751 mmHg 89%
17:00 +2°C° 0.1 mm 6 mps 751 mmHg 89%
18:00 +2°C° 0.1 mm 6 mps 751 mmHg 88%
19:00 +2°C° 0.1 mm 6 mps 751 mmHg 87%
20:00 +2°C° 0.1 mm 6 mps 752 mmHg 86%
21:00 +2°C° 0.1 mm 6 mps 752 mmHg 88%
22:00 +2°C° 0.1 mm 6 mps 752 mmHg 89%
23:00 +2°C° 0.1 mm 6 mps 752 mmHg 90%

16 April, Friday

Time Temperature Precipitation Wind Pressure Humidity
00:00 +2°C° 0 mm 6 mps 752 mmHg 91%
01:00 +2°C° 0 mm 6 mps 752 mmHg 92%
02:00 +2°C° 0 mm 6 mps 752 mmHg 93%
03:00 +2°C° 0.1 mm 6 mps 752 mmHg 93%
04:00 +2°C° 0.1 mm 6 mps 752 mmHg 92%
05:00 +2°C° 0.1 mm 6 mps 752 mmHg 92%
06:00 +2°C° 0.2 mm 6 mps 752 mmHg 91%
07:00 +2°C° 0.2 mm 6 mps 753 mmHg 89%
08:00 +2°C° 0.2 mm 6 mps 753 mmHg 88%
09:00 +2°C° 0 mm 6 mps 754 mmHg 85%
10:00 +3°C° 0 mm 6 mps 754 mmHg 83%
11:00 +3°C° 0 mm 6 mps 754 mmHg 81%
12:00 +3°C° 0 mm 6 mps 755 mmHg 78%
13:00 +4°C° 0 mm 6 mps 755 mmHg 75%
14:00 +6°C° 0 mm 5 mps 755 mmHg 72%
15:00 +6°C° 0.1 mm 5 mps 755 mmHg 72%
16:00 +6°C° 0.1 mm 5 mps 756 mmHg 71%
17:00 +6°C° 0.1 mm 5 mps 756 mmHg 71%
18:00 +6°C° 0.1 mm 5 mps 756 mmHg 68%
19:00 +6°C° 0.1 mm 5 mps 757 mmHg 65%
20:00 +6°C° 0.1 mm 5 mps 757 mmHg 62%
21:00 +5°C° 0 mm 5 mps 757 mmHg 64%
22:00 +3°C° 0 mm 5 mps 758 mmHg 66%
23:00 +3°C° 0 mm 5 mps 758 mmHg 69%
Show more